Regional Weather Roundup
Issued by NWS Albany, NY

Home | Current Version | Previous Version | Graphics & Text | Print | Product List | Glossary Off
Versions: 1 2 3 4 5 6 7 8 9 10 11 12 13 14 15 16 17 18 19 20 21 22 23 24 25 26 27 28 29 30 31 32 33 34 35 36 37 38 39 40 41 42 43 44 45 46 47 48 49 50

000
ASUS41 KALY 260110
RWRALY

NEW YORK STATE HOURLY WEATHER ROUNDUP
NATIONAL WEATHER SERVICE ALBANY NY
900 PM EDT TUE APR 25 2017

NOTE: "FAIR" INDICATES FEW OR NO CLOUDS BELOW 12,000 FEET WITH NO
SIGNIFICANT WEATHER AND/OR NO OBSTRUCTIONS TO VISIBILITY.

NYZ032-033-038>043-046>054-057>066-NYZ062>081-082-084-260200-
EAST


CITY           SKY/WX    TMP DP  RH WIND       PRES   REMARKS
ALBANY         LGT RAIN  52  46  80 NE6       30.05S
GLENS FALLS    LGT RAIN  51  46  83 NE7       30.07F
POUGHKEEPSIE   CLOUDY    51  49  92 N7        29.97F
NEWBURGH       DRIZZLE   52  52 100 E14G21    29.97F FOG
MONTGOMERY     LGT RAIN  52  50  93 NE13      29.95F
WHITE PLAINS   LGT RAIN  53  50  89 E15G21    29.92S FOG
ISLIP          LGT RAIN  55  55 100 NE14      29.90F FOG
NEW YORK CITY  LGT RAIN  52  50  93 NE20      29.90R FOG
CENTRAL PARK   LGT RAIN  51  51 100 E12G22    29.93F FOG
$$

NYZ005>009-017-018-044>046-055-056-260200-
CENTRAL


CITY           SKY/WX    TMP DP  RH WIND       PRES   REMARKS
FULTON         CLOUDY    55  47  74 SE10G20   29.94F
SYRACUSE       CLOUDY    53  47  79 E17G23    29.95S
ROME           CLOUDY    53  47  79 E10       30.01S
ELMIRA         LGT RAIN  58  52  80 NE5       29.89S
BINGHAMTON     LGT RAIN  51  49  92 E12G18    29.90F
MONTICELLO     CLOUDY    46  46 100 E12G18    29.95S
$$

NYZ026>034-041>043-087-260200-
NORTH


CITY           SKY/WX    TMP DP  RH WIND       PRES   REMARKS
WATERTOWN      CLOUDY    53  51  93 E5        29.95F
FORT DRUM      NOT AVBL
OGDENSBURG     LGT RAIN  51  49  95 E6        29.99F
MASSENA        LGT RAIN  49  48  97 NE7       30.03F
SARANAC LAKE   LGT RAIN  51  49  92 CALM      30.03S
PLATTSBURGH    LGT RAIN  48  46  93 SE3       30.10S
$$

NYZ001>004-010>016-019>021-085-260200-
WEST


CITY           SKY/WX    TMP DP  RH WIND       PRES   REMARKS
NIAGARA FALLS  CLOUDY    63  51  65 E10       29.83S
BUFFALO        CLOUDY    63  50  62 SE14      29.85R
DUNKIRK        CLOUDY    61  56  83 E5        29.82R
JAMESTOWN      CLOUDY    61  48  63 SE8       29.84S
WELLSVILLE     CLOUDY    54  50  86 SE10      29.90S
ROCHESTER      CLOUDY    62  52  69 SE7       29.88F
PENN YAN       CLOUDY    59  49  69 E5        29.90F
$$

             KEY
       WCI = WIND CHILL INDEX
       VSB = VISIBILITY
       HX  = HEAT INDEX
$$



USA.gov is the U.S. government's official web portal to all federal, state and local government web resources and services.